iso_date,epoch_date,Year,Hour,Min,DOY,POS_DOY,Lat,Lon,BP,Ts,Ta,has_bp,has_ts,has_ta,BuoyID,Buoy_Type,Buoy_Owner,Logistics,Hemisphere
2019-10-20T03:26:03Z,1571541964,2019,3,26,293.1431,293.1431,84.9742,132.7658,-999.00,-10.6,-999.0,no,yes,no,300234068215980,SVP,PRIC,MOSAiC,North
2019-10-20T04:00:02Z,1571544003,2019,4,0,293.1667,293.1667,84.9754,132.7598,-999.00,-10.5,-999.0,no,yes,no,300234068215980,SVP,PRIC,MOSAiC,North
2019-10-20T04:59:57Z,1571547597,2019,5,0,293.2083,293.2083,84.9786,132.7534,-999.00,-6.8,-999.0,no,yes,no,300234068215980,SVP,PRIC,MOSAiC,North
2019-10-20T06:00:00Z,1571551200,2019,6,0,293.25,293.25,84.9808,132.7488,-999.00,-8.5,-999.0,no,yes,no,300234068215980,SVP,PRIC,MOSAiC,North
2019-10-20T07:00:02Z,1571554803,2019,7,0,293.2917,293.2917,84.9826,132.742,-999.00,-9.2,-999.0,no,yes,no,300234068215980,SVP,PRIC,MOSAiC,North
2019-10-20T07:59:57Z,1571558397,2019,8,0,293.3333,293.3333,84.9844,132.734,-999.00,-9.9,-999.0,no,yes,no,300234068215980,SVP,PRIC,MOSAiC,North
2019-10-20T09:00:00Z,1571562000,2019,9,0,293.375,293.375,84.9862,132.722,-999.00,-10.0,-999.0,no,yes,no,300234068215980,SVP,PRIC,MOSAiC,North
2019-10-20T10:00:02Z,1571565603,2019,10,0,293.4167,293.4167,84.9882,132.7094,-999.00,-10.6,-999.0,no,yes,no,300234068215980,SVP,PRIC,MOSAiC,North
2019-10-20T10:59:57Z,1571569197,2019,11,0,293.4583,293.4583,84.9912,132.6938,-999.00,-11.1,-999.0,no,yes,no,300234068215980,SVP,PRIC,MOSAiC,North
2019-10-20T12:00:00Z,1571572800,2019,12,0,293.5,293.5,84.9948,132.6786,-999.00,-11.9,-999.0,no,yes,no,300234068215980,SVP,PRIC,MOSAiC,North
2019-10-20T13:00:02Z,1571576403,2019,13,0,293.5417,293.5417,84.9986,132.6668,-999.00,-12.5,-999.0,no,yes,no,300234068215980,SVP,PRIC,MOSAiC,North
2019-10-20T13:59:57Z,1571579997,2019,14,0,293.5833,293.5833,85.0028,132.66,-999.00,-12.4,-999.0,no,yes,no,300234068215980,SVP,PRIC,MOSAiC,North
2019-10-20T15:00:00Z,1571583600,2019,15,0,293.625,293.5813,85.0028,132.66,-999.00,-11.3,-999.0,no,yes,no,300234068215980,SVP,PRIC,MOSAiC,North
2019-10-20T16:00:02Z,1571587203,2019,16,0,293.6667,293.6667,85.013,132.673,-999.00,-10.4,-999.0,no,yes,no,300234068215980,SVP,PRIC,MOSAiC,North
2019-10-20T16:59:57Z,1571590797,2019,17,0,293.7083,293.7083,85.018,132.6974,-999.00,-9.3,-999.0,no,yes,no,300234068215980,SVP,PRIC,MOSAiC,North
2019-10-20T18:00:00Z,1571594400,2019,18,0,293.75,293.75,85.0226,132.7292,-999.00,-8.9,-999.0,no,yes,no,300234068215980,SVP,PRIC,MOSAiC,North
2019-10-20T19:00:02Z,1571598003,2019,19,0,293.7917,293.7917,85.027,132.7624,-999.00,-10.3,-999.0,no,yes,no,300234068215980,SVP,PRIC,MOSAiC,North
2019-10-20T19:59:57Z,1571601597,2019,20,0,293.8333,293.7896,85.027,132.7624,-999.00,-12.4,-999.0,no,yes,no,300234068215980,SVP,PRIC,MOSAiC,North
2019-10-20T21:00:00Z,1571605200,2019,21,0,293.875,293.7896,85.027,132.7624,-999.00,-13.3,-999.0,no,yes,no,300234068215980,SVP,PRIC,MOSAiC,North
2019-10-20T22:00:02Z,1571608803,2019,22,0,293.9167,293.9167,85.0366,132.8062,-999.00,-13.2,-999.0,no,yes,no,300234068215980,SVP,PRIC,MOSAiC,North
2019-10-20T22:59:57Z,1571612397,2019,23,0,293.9583,293.9583,85.0408,132.7948,-999.00,-12.6,-999.0,no,yes,no,300234068215980,SVP,PRIC,MOSAiC,North
2019-10-21T00:00:00Z,1571616000,2019,0,0,294.0,294.0,85.0472,132.7804,-999.00,-11.4,-999.0,no,yes,no,300234068215980,SVP,PRIC,MOSAiC,North
2019-10-21T01:00:02Z,1571619603,2019,1,0,294.0417,294.0417,85.0544,132.763,-999.00,-10.3,-999.0,no,yes,no,300234068215980,SVP,PRIC,MOSAiC,North
2019-10-21T01:59:57Z,1571623197,2019,2,0,294.0833,294.0833,85.0622,132.752,-999.00,-9.6,-999.0,no,yes,no,300234068215980,SVP,PRIC,MOSAiC,North
2019-10-21T03:00:00Z,1571626800,2019,3,0,294.125,294.125,85.0702,132.745,-999.00,-9.0,-999.0,no,yes,no,300234068215980,SVP,PRIC,MOSAiC,North
2019-10-21T04:00:02Z,1571630403,2019,4,0,294.1667,294.1667,85.072,132.9252,-999.00,-6.5,-999.0,no,yes,no,300234068215980,SVP,PRIC,MOSAiC,North
2019-10-21T04:59:57Z,1571633997,2019,5,0,294.2083,294.2083,85.0852,132.7376,-999.00,-5.1,-999.0,no,yes,no,300234068215980,SVP,PRIC,MOSAiC,North
2019-10-21T06:00:00Z,1571637600,2019,6,0,294.25,294.25,85.072,132.7084,-999.00,-6.9,-999.0,no,yes,no,300234068215980,SVP,PRIC,MOSAiC,North
2019-10-21T07:00:02Z,1571641203,2019,7,0,294.2917,294.2917,85.077,132.6954,-999.00,-11.8,-999.0,no,yes,no,300234068215980,SVP,PRIC,MOSAiC,North
2019-10-21T07:59:57Z,1571644797,2019,8,0,294.3333,294.3333,85.0816,132.672,-999.00,-10.1,-999.0,no,yes,no,300234068215980,SVP,PRIC,MOSAiC,North
2019-10-21T09:00:00Z,1571648400,2019,9,0,294.375,294.375,85.0862,132.6382,-999.00,-10.9,-999.0,no,yes,no,300234068215980,SVP,PRIC,MOSAiC,North
2019-10-21T10:00:02Z,1571652003,2019,10,0,294.4167,294.4167,85.0916,132.5952,-999.00,-9.0,-999.0,no,yes,no,300234068215980,SVP,PRIC,MOSAiC,North
2019-10-21T10:59:57Z,1571655597,2019,11,0,294.4583,294.4583,85.0976,132.5452,-999.00,-9.2,-999.0,no,yes,no,300234068215980,SVP,PRIC,MOSAiC,North
2019-10-21T12:00:00Z,1571659200,2019,12,0,294.5,294.5,85.1046,132.4932,-999.00,-8.9,-999.0,no,yes,no,300234068215980,SVP,PRIC,MOSAiC,North
2019-10-21T13:00:02Z,1571662803,2019,13,0,294.5417,294.5417,85.1118,132.4418,-999.00,-9.1,-999.0,no,yes,no,300234068215980,SVP,PRIC,MOSAiC,North
2019-10-21T13:59:57Z,1571666397,2019,14,0,294.5833,294.5833,85.1194,132.3932,-999.00,-8.7,-999.0,no,yes,no,300234068215980,SVP,PRIC,MOSAiC,North
2019-10-21T15:00:00Z,1571670000,2019,15,0,294.625,294.625,85.1268,132.348,-999.00,-8.5,-999.0,no,yes,no,300234068215980,SVP,PRIC,MOSAiC,North
2019-10-21T16:00:02Z,1571673603,2019,16,0,294.6667,294.6667,85.1338,132.3064,-999.00,-8.4,-999.0,no,yes,no,300234068215980,SVP,PRIC,MOSAiC,North
2019-10-21T16:59:57Z,1571677197,2019,17,0,294.7083,294.7083,85.1402,132.2662,-999.00,-8.2,-999.0,no,yes,no,300234068215980,SVP,PRIC,MOSAiC,North
2019-10-21T18:00:00Z,1571680800,2019,18,0,294.75,294.75,85.146,132.2256,-999.00,-8.7,-999.0,no,yes,no,300234068215980,SVP,PRIC,MOSAiC,North
2019-10-21T19:00:02Z,1571684403,2019,19,0,294.7917,294.7917,85.1512,132.1838,-999.00,-8.2,-999.0,no,yes,no,300234068215980,SVP,PRIC,MOSAiC,North
2019-10-21T19:59:57Z,1571687997,2019,20,0,294.8333,294.8333,85.1564,132.1374,-999.00,-8.3,-999.0,no,yes,no,300234068215980,SVP,PRIC,MOSAiC,North
2019-10-21T21:00:00Z,1571691600,2019,21,0,294.875,294.875,85.1618,132.0844,-999.00,-7.6,-999.0,no,yes,no,300234068215980,SVP,PRIC,MOSAiC,North
2019-10-21T22:00:02Z,1571695203,2019,22,0,294.9167,294.9167,85.1678,132.026,-999.00,-7.2,-999.0,no,yes,no,300234068215980,SVP,PRIC,MOSAiC,North
2019-10-21T22:59:57Z,1571698797,2019,23,0,294.9583,294.9583,85.1746,131.9632,-999.00,-6.6,-999.0,no,yes,no,300234068215980,SVP,PRIC,MOSAiC,North
2019-10-22T00:00:00Z,1571702400,2019,0,0,295.0,295.0,85.182,131.9004,-999.00,-6.7,-999.0,no,yes,no,300234068215980,SVP,PRIC,MOSAiC,North
2019-10-22T01:00:02Z,1571706003,2019,1,0,295.0417,295.0417,85.1898,131.8396,-999.00,-7.6,-999.0,no,yes,no,300234068215980,SVP,PRIC,MOSAiC,North
2019-10-22T01:59:57Z,1571709597,2019,2,0,295.0833,295.0833,85.198,131.781,-999.00,-6.7,-999.0,no,yes,no,300234068215980,SVP,PRIC,MOSAiC,North
2019-10-22T03:00:00Z,1571713200,2019,3,0,295.125,295.125,85.2062,131.7264,-999.00,-6.4,-999.0,no,yes,no,300234068215980,SVP,PRIC,MOSAiC,North
2019-10-22T04:00:02Z,1571716803,2019,4,0,295.1667,295.1667,85.214,131.6758,-999.00,-6.4,-999.0,no,yes,no,300234068215980,SVP,PRIC,MOSAiC,North
2019-10-22T06:00:00Z,1571724000,2019,6,0,295.25,295.25,85.2278,131.574,-999.00,-6.6,-999.0,no,yes,no,300234068215980,SVP,PRIC,MOSAiC,North
2019-10-22T07:00:02Z,1571727603,2019,7,0,295.2917,295.2917,85.2334,131.5174,-999.00,-7.0,-999.0,no,yes,no,300234068215980,SVP,PRIC,MOSAiC,North
2019-10-22T07:59:57Z,1571731197,2019,8,0,295.3333,295.3333,85.2388,131.455,-999.00,-7.4,-999.0,no,yes,no,300234068215980,SVP,PRIC,MOSAiC,North
2019-10-22T09:00:00Z,1571734800,2019,9,0,295.375,295.375,85.2434,131.3884,-999.00,-7.5,-999.0,no,yes,no,300234068215980,SVP,PRIC,MOSAiC,North
2019-10-22T10:00:02Z,1571738403,2019,10,0,295.4167,295.4167,85.248,131.3192,-999.00,-7.8,-999.0,no,yes,no,300234068215980,SVP,PRIC,MOSAiC,North
2019-10-22T10:59:57Z,1571741997,2019,11,0,295.4583,295.4583,85.2524,131.2456,-999.00,-8.4,-999.0,no,yes,no,300234068215980,SVP,PRIC,MOSAiC,North
2019-10-22T12:00:00Z,1571745600,2019,12,0,295.5,295.5,85.2568,131.1714,-999.00,-8.6,-999.0,no,yes,no,300234068215980,SVP,PRIC,MOSAiC,North
2019-10-22T13:00:02Z,1571749203,2019,13,0,295.5417,295.5417,85.2612,131.098,-999.00,-8.6,-999.0,no,yes,no,300234068215980,SVP,PRIC,MOSAiC,North
2019-10-22T13:59:57Z,1571752797,2019,14,0,295.5833,295.5833,85.2654,131.0262,-999.00,-9.3,-999.0,no,yes,no,300234068215980,SVP,PRIC,MOSAiC,North
2019-10-22T15:00:00Z,1571756400,2019,15,0,295.625,295.625,85.27,130.9596,-999.00,-10.1,-999.0,no,yes,no,300234068215980,SVP,PRIC,MOSAiC,North
2019-10-22T16:00:02Z,1571760003,2019,16,0,295.6667,295.6667,85.2742,130.898,-999.00,-9.1,-999.0,no,yes,no,300234068215980,SVP,PRIC,MOSAiC,North
2019-10-22T16:59:57Z,1571763597,2019,17,0,295.7083,295.7083,85.2784,130.839,-999.00,-8.7,-999.0,no,yes,no,300234068215980,SVP,PRIC,MOSAiC,North
2019-10-22T18:00:00Z,1571767200,2019,18,0,295.75,295.75,85.2824,130.7858,-999.00,-8.4,-999.0,no,yes,no,300234068215980,SVP,PRIC,MOSAiC,North
2019-10-22T19:00:02Z,1571770803,2019,19,0,295.7917,295.7917,85.2862,130.7334,-999.00,-8.3,-999.0,no,yes,no,300234068215980,SVP,PRIC,MOSAiC,North
2019-10-22T19:59:57Z,1571774397,2019,20,0,295.8333,295.8333,85.2892,130.6814,-999.00,-8.2,-999.0,no,yes,no,300234068215980,SVP,PRIC,MOSAiC,North
2019-10-22T21:00:00Z,1571778000,2019,21,0,295.875,295.875,85.2922,130.6258,-999.00,-8.3,-999.0,no,yes,no,300234068215980,SVP,PRIC,MOSAiC,North
2019-10-22T22:00:02Z,1571781603,2019,22,0,295.9167,295.9167,85.295,130.568,-999.00,-8.5,-999.0,no,yes,no,300234068215980,SVP,PRIC,MOSAiC,North
2019-10-22T22:59:57Z,1571785197,2019,23,0,295.9583,295.9583,85.2982,130.5066,-999.00,-8.4,-999.0,no,yes,no,300234068215980,SVP,PRIC,MOSAiC,North
2019-10-23T00:00:00Z,1571788800,2019,0,0,296.0,296.0,85.3016,130.4452,-999.00,-8.5,-999.0,no,yes,no,300234068215980,SVP,PRIC,MOSAiC,North
2019-10-23T01:00:02Z,1571792403,2019,1,0,296.0417,296.0417,85.3052,130.3828,-999.00,-8.9,-999.0,no,yes,no,300234068215980,SVP,PRIC,MOSAiC,North
2019-10-23T01:59:57Z,1571795997,2019,2,0,296.0833,296.0833,85.3088,130.3208,-999.00,-8.9,-999.0,no,yes,no,300234068215980,SVP,PRIC,MOSAiC,North
2019-10-23T03:00:00Z,1571799600,2019,3,0,296.125,296.125,85.3122,130.2624,-999.00,-9.2,-999.0,no,yes,no,300234068215980,SVP,PRIC,MOSAiC,North
2019-10-23T04:00:02Z,1571803203,2019,4,0,296.1667,296.1667,85.3154,130.209,-999.00,-9.7,-999.0,no,yes,no,300234068215980,SVP,PRIC,MOSAiC,North
2019-10-23T04:59:57Z,1571806797,2019,5,0,296.2083,296.2083,85.3182,130.1572,-999.00,-10.1,-999.0,no,yes,no,300234068215980,SVP,PRIC,MOSAiC,North
2019-10-23T06:00:00Z,1571810400,2019,6,0,296.25,296.25,85.3204,130.1088,-999.00,-10.3,-999.0,no,yes,no,300234068215980,SVP,PRIC,MOSAiC,North
2019-10-23T07:00:02Z,1571814003,2019,7,0,296.2917,296.2917,85.3222,130.0612,-999.00,-10.9,-999.0,no,yes,no,300234068215980,SVP,PRIC,MOSAiC,North
2019-10-23T07:59:57Z,1571817597,2019,8,0,296.3333,296.3333,85.3236,130.0136,-999.00,-11.0,-999.0,no,yes,no,300234068215980,SVP,PRIC,MOSAiC,North
2019-10-23T09:00:00Z,1571821200,2019,9,0,296.375,296.375,85.325,129.964,-999.00,-11.8,-999.0,no,yes,no,300234068215980,SVP,PRIC,MOSAiC,North
2019-10-23T10:00:02Z,1571824803,2019,10,0,296.4167,296.4167,85.3266,129.9162,-999.00,-13.1,-999.0,no,yes,no,300234068215980,SVP,PRIC,MOSAiC,North
2019-10-23T10:59:57Z,1571828397,2019,11,0,296.4583,296.4583,85.328,129.8714,-999.00,-14.8,-999.0,no,yes,no,300234068215980,SVP,PRIC,MOSAiC,North
2019-10-23T12:00:00Z,1571832000,2019,12,0,296.5,296.5,85.3298,129.8318,-999.00,-16.3,-999.0,no,yes,no,300234068215980,SVP,PRIC,MOSAiC,North
2019-10-23T13:00:02Z,1571835603,2019,13,0,296.5417,296.5417,85.3316,129.7962,-999.00,-16.1,-999.0,no,yes,no,300234068215980,SVP,PRIC,MOSAiC,North
2019-10-23T13:59:57Z,1571839197,2019,14,0,296.5833,296.5833,85.3336,129.7614,-999.00,-13.5,-999.0,no,yes,no,300234068215980,SVP,PRIC,MOSAiC,North
2019-10-23T15:00:00Z,1571842800,2019,15,0,296.625,296.625,85.3358,129.7308,-999.00,-12.6,-999.0,no,yes,no,300234068215980,SVP,PRIC,MOSAiC,North
2019-10-23T16:00:02Z,1571846403,2019,16,0,296.6667,296.6667,85.3378,129.7022,-999.00,-11.8,-999.0,no,yes,no,300234068215980,SVP,PRIC,MOSAiC,North
2019-10-23T16:59:57Z,1571849997,2019,17,0,296.7083,296.7083,85.3396,129.673,-999.00,-11.3,-999.0,no,yes,no,300234068215980,SVP,PRIC,MOSAiC,North
2019-10-23T18:00:00Z,1571853600,2019,18,0,296.75,296.75,85.3414,129.6446,-999.00,-11.0,-999.0,no,yes,no,300234068215980,SVP,PRIC,MOSAiC,North
2019-10-23T19:00:02Z,1571857203,2019,19,0,296.7917,296.7917,85.3428,129.6156,-999.00,-11.4,-999.0,no,yes,no,300234068215980,SVP,PRIC,MOSAiC,North
2019-10-23T19:59:57Z,1571860797,2019,20,0,296.8333,296.8333,85.3442,129.5858,-999.00,-12.1,-999.0,no,yes,no,300234068215980,SVP,PRIC,MOSAiC,North
2019-10-23T21:00:00Z,1571864400,2019,21,0,296.875,296.875,85.3458,129.553,-999.00,-13.0,-999.0,no,yes,no,300234068215980,SVP,PRIC,MOSAiC,North
2019-10-23T22:00:02Z,1571868003,2019,22,0,296.9167,296.9167,85.3474,129.515,-999.00,-12.9,-999.0,no,yes,no,300234068215980,SVP,PRIC,MOSAiC,North
2019-10-23T22:59:57Z,1571871597,2019,23,0,296.9583,296.9583,85.3494,129.4764,-999.00,-14.3,-999.0,no,yes,no,300234068215980,SVP,PRIC,MOSAiC,North
2019-10-24T00:00:00Z,1571875200,2019,0,0,297.0,297.0,85.3518,129.4368,-999.00,-15.9,-999.0,no,yes,no,300234068215980,SVP,PRIC,MOSAiC,North
2019-10-24T01:00:02Z,1571878803,2019,1,0,297.0417,297.0417,85.3548,129.3948,-999.00,-12.8,-999.0,no,yes,no,300234068215980,SVP,PRIC,MOSAiC,North
2019-10-24T01:59:57Z,1571882397,2019,2,0,297.0833,297.0833,85.3582,129.3554,-999.00,-11.4,-999.0,no,yes,no,300234068215980,SVP,PRIC,MOSAiC,North
2019-10-24T03:00:00Z,1571886000,2019,3,0,297.125,297.125,85.362,129.3218,-999.00,-11.5,-999.0,no,yes,no,300234068215980,SVP,PRIC,MOSAiC,North
2019-10-24T04:00:02Z,1571889603,2019,4,0,297.1667,297.1667,85.3656,129.2898,-999.00,-11.4,-999.0,no,yes,no,300234068215980,SVP,PRIC,MOSAiC,North
2019-10-24T04:59:57Z,1571893197,2019,5,0,297.2083,297.2083,85.369,129.2578,-999.00,-11.3,-999.0,no,yes,no,300234068215980,SVP,PRIC,MOSAiC,North
2019-10-24T06:00:00Z,1571896800,2019,6,0,297.25,297.25,85.3722,129.2228,-999.00,-11.0,-999.0,no,yes,no,300234068215980,SVP,PRIC,MOSAiC,North
2019-10-24T07:00:02Z,1571900403,2019,7,0,297.2917,297.2917,85.375,129.183,-999.00,-11.1,-999.0,no,yes,no,300234068215980,SVP,PRIC,MOSAiC,North
2019-10-24T07:59:57Z,1571903997,2019,8,0,297.3333,297.3333,85.378,129.1422,-999.00,-11.3,-999.0,no,yes,no,300234068215980,SVP,PRIC,MOSAiC,North
2019-10-24T09:00:00Z,1571907600,2019,9,0,297.375,297.375,85.3804,129.095,-999.00,-11.9,-999.0,no,yes,no,300234068215980,SVP,PRIC,MOSAiC,North
2019-10-24T10:00:02Z,1571911203,2019,10,0,297.4167,297.4167,85.3826,129.0436,-999.00,-12.1,-999.0,no,yes,no,300234068215980,SVP,PRIC,MOSAiC,North
2019-10-24T10:59:57Z,1571914797,2019,11,0,297.4583,297.4583,85.3852,128.9878,-999.00,-12.5,-999.0,no,yes,no,300234068215980,SVP,PRIC,MOSAiC,North
2019-10-24T12:00:00Z,1571918400,2019,12,0,297.5,297.5,85.3878,128.9268,-999.00,-12.6,-999.0,no,yes,no,300234068215980,SVP,PRIC,MOSAiC,North
2019-10-24T13:00:02Z,1571922003,2019,13,0,297.5417,297.5417,85.3908,128.865,-999.00,-12.9,-999.0,no,yes,no,300234068215980,SVP,PRIC,MOSAiC,North
2019-10-24T13:59:57Z,1571925597,2019,14,0,297.5833,297.5833,85.3936,128.8032,-999.00,-12.5,-999.0,no,yes,no,300234068215980,SVP,PRIC,MOSAiC,North
2019-10-24T15:00:00Z,1571929200,2019,15,0,297.625,297.625,85.3966,128.7416,-999.00,-12.2,-999.0,no,yes,no,300234068215980,SVP,PRIC,MOSAiC,North
2019-10-24T16:00:02Z,1571932803,2019,16,0,297.6667,297.6667,85.4,128.6822,-999.00,-12.1,-999.0,no,yes,no,300234068215980,SVP,PRIC,MOSAiC,North
2019-10-24T16:59:57Z,1571936397,2019,17,0,297.7083,297.7083,85.4032,128.6286,-999.00,-12.4,-999.0,no,yes,no,300234068215980,SVP,PRIC,MOSAiC,North
2019-10-24T18:00:00Z,1571940000,2019,18,0,297.75,297.75,85.406,128.577,-999.00,-13.2,-999.0,no,yes,no,300234068215980,SVP,PRIC,MOSAiC,North
2019-10-24T19:00:02Z,1571943603,2019,19,0,297.7917,297.7917,85.4084,128.5256,-999.00,-14.8,-999.0,no,yes,no,300234068215980,SVP,PRIC,MOSAiC,North
2019-10-24T19:59:57Z,1571947197,2019,20,0,297.8333,297.8333,85.4102,128.4732,-999.00,-14.9,-999.0,no,yes,no,300234068215980,SVP,PRIC,MOSAiC,North
2019-10-24T21:00:00Z,1571950800,2019,21,0,297.875,297.875,85.4118,128.4202,-999.00,-16.2,-999.0,no,yes,no,300234068215980,SVP,PRIC,MOSAiC,North
2019-10-24T22:00:02Z,1571954403,2019,22,0,297.9167,297.9167,85.4132,128.3656,-999.00,-15.7,-999.0,no,yes,no,300234068215980,SVP,PRIC,MOSAiC,North
2019-10-24T22:59:57Z,1571957997,2019,23,0,297.9583,297.9583,85.4146,128.311,-999.00,-15.2,-999.0,no,yes,no,300234068215980,SVP,PRIC,MOSAiC,North
2019-10-25T00:00:00Z,1571961600,2019,0,0,298.0,298.0,85.4164,128.257,-999.00,-14.8,-999.0,no,yes,no,300234068215980,SVP,PRIC,MOSAiC,North
2019-10-25T01:00:02Z,1571965203,2019,1,0,298.0417,298.0417,85.4184,128.2072,-999.00,-14.6,-999.0,no,yes,no,300234068215980,SVP,PRIC,MOSAiC,North
2019-10-25T01:59:57Z,1571968797,2019,2,0,298.0833,298.0833,85.4204,128.1604,-999.00,-14.4,-999.0,no,yes,no,300234068215980,SVP,PRIC,MOSAiC,North
2019-10-25T03:00:00Z,1571972400,2019,3,0,298.125,298.125,85.4224,128.1202,-999.00,-14.6,-999.0,no,yes,no,300234068215980,SVP,PRIC,MOSAiC,North
2019-10-25T04:00:02Z,1571976003,2019,4,0,298.1667,298.1667,85.424,128.0866,-999.00,-16.1,-999.0,no,yes,no,300234068215980,SVP,PRIC,MOSAiC,North
2019-10-25T04:59:57Z,1571979597,2019,5,0,298.2083,298.2083,85.4254,128.0602,-999.00,-17.8,-999.0,no,yes,no,300234068215980,SVP,PRIC,MOSAiC,North
2019-10-25T06:00:00Z,1571983200,2019,6,0,298.25,298.25,85.4262,128.038,-999.00,-19.0,-999.0,no,yes,no,300234068215980,SVP,PRIC,MOSAiC,North
2019-10-25T07:00:02Z,1571986803,2019,7,0,298.2917,298.2917,85.4266,128.0168,-999.00,-20.0,-999.0,no,yes,no,300234068215980,SVP,PRIC,MOSAiC,North
2019-10-25T07:59:57Z,1571990397,2019,8,0,298.3333,298.3333,85.427,127.9926,-999.00,-20.4,-999.0,no,yes,no,300234068215980,SVP,PRIC,MOSAiC,North
2019-10-25T09:00:00Z,1571994000,2019,9,0,298.375,298.375,85.4272,127.9648,-999.00,-21.4,-999.0,no,yes,no,300234068215980,SVP,PRIC,MOSAiC,North
2019-10-25T10:00:02Z,1571997603,2019,10,0,298.4167,298.4167,85.4276,127.9344,-999.00,-22.1,-999.0,no,yes,no,300234068215980,SVP,PRIC,MOSAiC,North
2019-10-25T10:59:57Z,1572001197,2019,11,0,298.4583,298.4583,85.428,127.9032,-999.00,-22.7,-999.0,no,yes,no,300234068215980,SVP,PRIC,MOSAiC,North
2019-10-25T12:00:00Z,1572004800,2019,12,0,298.5,298.5,85.4282,127.8732,-999.00,-22.9,-999.0,no,yes,no,300234068215980,SVP,PRIC,MOSAiC,North
2019-10-25T13:00:02Z,1572008403,2019,13,0,298.5417,298.5417,85.4288,127.8446,-999.00,-23.3,-999.0,no,yes,no,300234068215980,SVP,PRIC,MOSAiC,North
2019-10-25T13:59:57Z,1572011997,2019,14,0,298.5833,298.5833,85.4296,127.8178,-999.00,-23.6,-999.0,no,yes,no,300234068215980,SVP,PRIC,MOSAiC,North
2019-10-25T15:00:00Z,1572015600,2019,15,0,298.625,298.625,85.4302,127.7946,-999.00,-23.4,-999.0,no,yes,no,300234068215980,SVP,PRIC,MOSAiC,North
2019-10-25T16:00:02Z,1572019203,2019,16,0,298.6667,298.6667,85.431,127.7754,-999.00,-21.8,-999.0,no,yes,no,300234068215980,SVP,PRIC,MOSAiC,North
2019-10-25T16:59:57Z,1572022797,2019,17,0,298.7083,298.7083,85.4316,127.7578,-999.00,-19.6,-999.0,no,yes,no,300234068215980,SVP,PRIC,MOSAiC,North
2019-10-25T18:00:00Z,1572026400,2019,18,0,298.75,298.75,85.432,127.7396,-999.00,-18.9,-999.0,no,yes,no,300234068215980,SVP,PRIC,MOSAiC,North
2019-10-25T19:00:02Z,1572030003,2019,19,0,298.7917,298.7917,85.4322,127.7232,-999.00,-18.1,-999.0,no,yes,no,300234068215980,SVP,PRIC,MOSAiC,North
2019-10-25T19:59:57Z,1572033597,2019,20,0,298.8333,298.8333,85.432,127.7044,-999.00,-18.6,-999.0,no,yes,no,300234068215980,SVP,PRIC,MOSAiC,North
2019-10-25T21:00:00Z,1572037200,2019,21,0,298.875,298.875,85.4318,127.6862,-999.00,-20.4,-999.0,no,yes,no,300234068215980,SVP,PRIC,MOSAiC,North
2019-10-25T22:00:02Z,1572040803,2019,22,0,298.9167,298.9167,85.4316,127.6634,-999.00,-21.6,-999.0,no,yes,no,300234068215980,SVP,PRIC,MOSAiC,North
2019-10-25T22:59:57Z,1572044397,2019,23,0,298.9583,298.9583,85.4316,127.6392,-999.00,-21.6,-999.0,no,yes,no,300234068215980,SVP,PRIC,MOSAiC,North
2019-10-26T00:00:00Z,1572048000,2019,0,0,299.0,299.0,85.4316,127.6142,-999.00,-22.2,-999.0,no,yes,no,300234068215980,SVP,PRIC,MOSAiC,North
2019-10-26T01:00:02Z,1572051603,2019,1,0,299.0417,299.0417,85.432,127.59,-999.00,-22.6,-999.0,no,yes,no,300234068215980,SVP,PRIC,MOSAiC,North
2019-10-26T01:59:57Z,1572055197,2019,2,0,299.0833,299.0833,85.4324,127.568,-999.00,-22.3,-999.0,no,yes,no,300234068215980,SVP,PRIC,MOSAiC,North
2019-10-26T03:00:00Z,1572058800,2019,3,0,299.125,299.125,85.4332,127.5506,-999.00,-22.1,-999.0,no,yes,no,300234068215980,SVP,PRIC,MOSAiC,North
2019-10-26T04:00:02Z,1572062403,2019,4,0,299.1667,299.1667,85.4338,127.5366,-999.00,-21.9,-999.0,no,yes,no,300234068215980,SVP,PRIC,MOSAiC,North
2019-10-26T04:59:57Z,1572065997,2019,5,0,299.2083,299.2083,85.4344,127.5248,-999.00,-20.6,-999.0,no,yes,no,300234068215980,SVP,PRIC,MOSAiC,North
2019-10-26T06:00:00Z,1572069600,2019,6,0,299.25,299.25,85.4348,127.5128,-999.00,-19.2,-999.0,no,yes,no,300234068215980,SVP,PRIC,MOSAiC,North
2019-10-26T07:00:02Z,1572073203,2019,7,0,299.2917,299.2917,85.4352,127.4998,-999.00,-20.4,-999.0,no,yes,no,300234068215980,SVP,PRIC,MOSAiC,North
2019-10-26T07:59:57Z,1572076797,2019,8,0,299.3333,299.3333,85.4354,127.4838,-999.00,-20.7,-999.0,no,yes,no,300234068215980,SVP,PRIC,MOSAiC,North
2019-10-26T09:00:00Z,1572080400,2019,9,0,299.375,299.375,85.4356,127.4634,-999.00,-21.4,-999.0,no,yes,no,300234068215980,SVP,PRIC,MOSAiC,North
2019-10-26T10:00:02Z,1572084003,2019,10,0,299.4167,299.4167,85.4358,127.4398,-999.00,-21.1,-999.0,no,yes,no,300234068215980,SVP,PRIC,MOSAiC,North
2019-10-26T10:59:57Z,1572087597,2019,11,0,299.4583,299.4583,85.4364,127.4134,-999.00,-22.1,-999.0,no,yes,no,300234068215980,SVP,PRIC,MOSAiC,North
2019-10-26T12:00:00Z,1572091200,2019,12,0,299.5,299.5,85.437,127.386,-999.00,-23.5,-999.0,no,yes,no,300234068215980,SVP,PRIC,MOSAiC,North
2019-10-26T13:00:02Z,1572094803,2019,13,0,299.5417,299.5417,85.438,127.3598,-999.00,-24.2,-999.0,no,yes,no,300234068215980,SVP,PRIC,MOSAiC,North
2019-10-26T13:59:57Z,1572098397,2019,14,0,299.5833,299.5833,85.439,127.3358,-999.00,-24.6,-999.0,no,yes,no,300234068215980,SVP,PRIC,MOSAiC,North
2019-10-26T15:00:00Z,1572102000,2019,15,0,299.625,299.625,85.4402,127.3152,-999.00,-25.3,-999.0,no,yes,no,300234068215980,SVP,PRIC,MOSAiC,North
2019-10-26T16:00:02Z,1572105603,2019,16,0,299.6667,299.6667,85.4416,127.298,-999.00,-25.7,-999.0,no,yes,no,300234068215980,SVP,PRIC,MOSAiC,North
2019-10-26T16:59:57Z,1572109197,2019,17,0,299.7083,299.7083,85.4428,127.283,-999.00,-25.8,-999.0,no,yes,no,300234068215980,SVP,PRIC,MOSAiC,North
2019-10-26T18:00:00Z,1572112800,2019,18,0,299.75,299.75,85.444,127.269,-999.00,-24.9,-999.0,no,yes,no,300234068215980,SVP,PRIC,MOSAiC,North
2019-10-26T19:00:02Z,1572116403,2019,19,0,299.7917,299.7917,85.445,127.2544,-999.00,-24.6,-999.0,no,yes,no,300234068215980,SVP,PRIC,MOSAiC,North
2019-10-26T19:59:57Z,1572119997,2019,20,0,299.8333,299.8333,85.446,127.2368,-999.00,-24.9,-999.0,no,yes,no,300234068215980,SVP,PRIC,MOSAiC,North
2019-10-26T21:00:00Z,1572123600,2019,21,0,299.875,299.875,85.4472,127.2164,-999.00,-25.1,-999.0,no,yes,no,300234068215980,SVP,PRIC,MOSAiC,North
2019-10-26T22:00:02Z,1572127203,2019,22,0,299.9167,299.9167,85.4484,127.1912,-999.00,-25.3,-999.0,no,yes,no,300234068215980,SVP,PRIC,MOSAiC,North
2019-10-26T22:59:57Z,1572130797,2019,23,0,299.9583,299.9583,85.4498,127.1638,-999.00,-25.4,-999.0,no,yes,no,300234068215980,SVP,PRIC,MOSAiC,North
2019-10-27T00:00:00Z,1572134400,2019,0,0,300.0,300.0,85.4514,127.1352,-999.00,-25.4,-999.0,no,yes,no,300234068215980,SVP,PRIC,MOSAiC,North
2019-10-27T01:00:02Z,1572138003,2019,1,0,300.0417,300.0417,85.4534,127.1076,-999.00,-25.7,-999.0,no,yes,no,300234068215980,SVP,PRIC,MOSAiC,North